Zurück zum Katalog

YAOGAN-31 B

AktivMilitärLEO
NORAD 43276·PAYLOAD·🇨🇳 China

Gestartet Apr 10, 2018 von Jiuquan Satellite Launch Center

Loading…

Nächste Überflüge (nächste 24 Stunden)

TLE

AktuellSource: Space-Track

Epoche: Sep 14, 2026, 14:59 UTC

1 43276U 18034B   26257.62470104  .00000031  00000-0  16121-3 0  9992
2 43276  63.3928 221.1431 0283093   7.6551 352.8661 13.45462451414250

Verfolge YAOGAN-31 B in Echtzeit mit AllMySat

Download on the App Store